Jamestown, NY

7:15 PM EDT on October 21, 2019 (GMT -0400)
Chautauqua County-Jamestown

Weather History for KJHW - September, 2019

Change the Weather History Date:

Friday, September 20, 2019

  Actual Average Record
Temperature  
Mean Temperature 62 °F -  
Max Temperature 75 °F 71 °F 84 °F (1983)
Min Temperature 48 °F 46 °F 34 °F (1979)
Degree Days  
Heating Degree Days 4    
Growing Degree Days 12 (Base 50)    
Moisture  
Dew Point 51 °F    
Average Humidity 71    
Maximum Humidity 93    
Minimum Humidity 44    
Precipitation  
Precipitation 0.00 in - - ()
Sea Level Pressure  
Sea Level Pressure 30.25 in    
Wind  
Wind Speed 5 mph (South)    
Max Wind Speed 8 mph    
Max Gust Speed -    
Visibility 10 miles    
Events      
Averages and records for this station are not official NWS values.
T = Trace of Precipitation, MM = Missing Value Source: NWS Daily Summary

Daily Weather History Graph

Daily Weather History Graph

Search for Another Location

Airport or City:

Astronomy

Sep. 20, 2019 Rise Set
Actual Time 7:02 AM EDT 7:18 PM EDT
Civil Twilight 6:34 AM EDT 7:46 PM EDT
Nautical Twilight 6:01 AM EDT 8:18 PM EDT
Astronomical Twilight 5:27 AM EDT 8:52 PM EDT
Moon 11:00 PM EDT (9/20) 1:11 PM EDT (9/20)
Length of Visible Light 13h 12m
Length of Day
12h 16m
Waning Gibbous, 65% of the Moon is Illuminated
Sep 20
Waning Gibbous
Sep 21
Last Quarter
Sep 28
New
Oct 5
First Quarter
Oct 13
Full

Hourly Weather History & Observations

Time (EDT) Temp. Dew Point Humidity Pressure Visibility Wind Dir Wind Speed Gust Speed Precip Events Conditions
12:56 AM 55.0 °F 48.9 °F 80% 30.26 in 10.0 mi South 8.1 mph - N/A   Clear
1:56 AM 53.1 °F 48.0 °F 83% 30.25 in 10.0 mi South 6.9 mph - N/A   Clear
2:56 AM 52.0 °F 46.9 °F 83% 30.24 in 10.0 mi South 8.1 mph - N/A   Clear
3:56 AM 51.1 °F 46.9 °F 86% 30.24 in 10.0 mi South 6.9 mph - N/A   Clear
4:56 AM 50.0 °F 46.0 °F 86% 30.26 in 10.0 mi SSW 5.8 mph - N/A   Clear
5:56 AM 48.9 °F 46.9 °F 93% 30.26 in 10.0 mi SSW 3.5 mph - N/A   Clear
6:56 AM 48.9 °F 46.0 °F 90% 30.28 in 10.0 mi South 4.6 mph - N/A   Clear
7:56 AM 50.0 °F 46.9 °F 89% 30.29 in 10.0 mi South 5.8 mph - N/A   Clear
8:56 AM 53.1 °F 48.0 °F 83% 30.30 in 10.0 mi South 5.8 mph - N/A   Clear
10:56 AM 63.0 °F 53.1 °F 70% 30.29 in 10.0 mi South 4.6 mph - N/A   Clear
11:56 AM 66.9 °F 55.0 °F 66% 30.27 in 10.0 mi Variable 3.5 mph - N/A   Clear
12:56 PM 71.1 °F 54.0 °F 55% 30.25 in 8.0 mi Calm Calm - N/A   Clear
1:56 PM 73.0 °F 54.0 °F 51% 30.24 in 10.0 mi Calm Calm - N/A   Clear
2:56 PM 73.9 °F 55.0 °F 52% 30.22 in 10.0 mi Variable 3.5 mph - N/A   Clear
3:56 PM 75.0 °F 53.1 °F 46% 30.21 in 10.0 mi Variable 3.5 mph - N/A   Clear
4:56 PM 75.0 °F 52.0 °F 44% 30.21 in 10.0 mi Calm Calm - N/A   Clear
5:56 PM 73.9 °F 53.1 °F 48% 30.22 in 10.0 mi East 3.5 mph - N/A   Clear
6:56 PM 72.0 °F 55.0 °F 55% 30.23 in 10.0 mi Calm Calm - N/A   Clear
7:56 PM 66.9 °F 54.0 °F 63% 30.24 in 10.0 mi Calm Calm - N/A   Clear
8:56 PM 66.0 °F 54.0 °F 65% 30.25 in 10.0 mi Calm Calm - N/A   Clear
9:56 PM 66.0 °F 55.0 °F 68% 30.25 in 10.0 mi Calm Calm - N/A   Clear
10:56 PM 60.1 °F 55.0 °F 83% 30.26 in 10.0 mi South 3.5 mph - N/A   Clear
11:56 PM 59.0 °F 55.0 °F 87% 30.25 in 10.0 mi South 3.5 mph - N/A   Clear